SL-8 R/B (15483 NORAD) Tracking and Keplerian Element Data

This shows tracking and keplerian element data for the satellite.

Feedback or suggestion? Click here.




ElementValue
Catalog15483
NameSL-8 R/B
Epoch Orbit4098
Epoch Day12.92006705
Epoch Year2024
RAAN267.894
Inclination74.0455
Eccentricity0.0018169
Argument of Perigee13.6205
Mean Anonmoly67.471
Mean Motion14.3689591
Decay Rate4.05E-06
L11 15483U 85006B 24012.92006705 .00000405 00000+0 14539-3 0 9991
L22 15483 74.0455 267.8940 0018169 13.6205 67.4710 14.36895910 40988



Live tracking and technical data element details for SL-8 R/B (NORAD 15483). SL-8 R/B can be tracked NOW for your location showing map with azimuth and elevation plus other details from your city location.







IsCatalogInMostPopularTable: catalog: 15483, numindb: 361
Update: records affected: 1



GetName: 15483 SL-8 R/B

Hit Count: updated at: Sun, 14 Apr 2024 23:11:52 GMT